GPS BIIF-7 (PRN 09)

Last updated on July 6, 2021, 3:39 p.m. UTC

1 40105U 14045A   21185.70404310  .00000060  00000-0  00000-0 0  9996
2 40105  54.6303 160.6885 0016794 106.8489 253.3187  2.00553925 49801
UTC
Height (km)
Latitude
Longitude
Inclination
Orbital Period
UTC large
Height (km)
Speed (km/s)
/
Latitude / Longitude
Inclination (degrees)
Orbital Period (minutes)
Azimuth
Elevation
Range (km)
Doppler Factor
iOS Compass Heading
iOS Angle